www.pogodaiklimat.ru

Погода и климат >> Архив погоды >> Индонезия >> Сабанг


ПОГОДА в Сабанге

  • Прогноз погоды в Сабанге
  • Монитор погоды в Сабанге

АРХИВ ПОГОДЫ в Сабанге

Время (UTC), дата Ветер
(напр.,м/с)
 
Видим.   Явления Облачность Т
(С)
Тd
(С)
f
(%)
Тe
(С)
Тes
(С)
Комфортность P
(гПа)
Po
(гПа)
Тmin
(С)
Tmax
(С)
R
(мм)
R24
(мм)
S
(см)
00 9.06 ЮЗ 4 7000 м {дождь} 10/5 570 м
[Sc Ac As Ci sp]
+26.6 +22.7 79 +35 +35 очень
душно
1010.5 996.0 +24.4 6
03 9.06 ЮВ 4 10 км 8/5 600 м
[Cu med, cong Ac trans Ci sp]
+29.2 +24.3 75 +41 +44 опасность
перегрева
1011.4 996.8
06 9.06 ЮВ 4 10 км 8/4 600 м
[Cu med, cong Ac trans Ci sp]
+29.8 +24.5 73 +42 +47 опасность
перегрева
1011.0 996.4
09 9.06 ЮВ 4 10 км 9/5 600 м
[Cu med, cong Ac As Ci sp]
+30.5 +25.2 73 +44 +46 опасность
перегрева
1008.8 994.3
12 9.06 штиль 0 8000 м 9/5 600 м
[Cu med, cong Ac As Ci sp]
+28.2 +25.3 84 +41 +41 опасность
перегрева
1009.0 994.4 +30.4
15 9.06 штиль 0 7000 м 9/5 600 м
[Cu med, cong Ac As Ci sp]
+26.4 +24.6 90 +37 +37 очень
душно
1010.6 996.0
18 9.06 Ю 3 7000 м 8/5 600 м
[Cu med, cong Ac As Ci sp]
+26.5 +24.6 89 +37 +37 очень
душно
1009.7 995.1
21 9.06 штиль 0 7000 м 8/5 600 м
[Cu med, cong Ac As Ci sp]
+26.4 +24.0 87 +37 +37 очень
душно
1008.9 994.4
00 10.06 штиль 0 10 км 8/5 600 м
[Cu med, cong Ac trans Ci sp]
+25.4 +23.9 91 +35 +35 очень
душно
1008.9 994.3 +25.0
03 10.06 штиль 0 12 км 8/5 600 м
[Cu med, cong Ac trans Ci fib]
+31.0 +24.6 69 +44 +50 опасность
перегрева
1010.7 996.1
06 10.06 СЗ 4 10 км 9/5 600 м
[Cu med, cong Ac trans Ci sp]
+30.3 +24.7 72 +43 +47 опасность
перегрева
1010.1 995.9
09 10.06 З 4 10 км 10/5 600 м
[Cu med, cong Ac As Ci sp]
+29.8 +25.2 76 +43 +45 опасность
перегрева
1008.7 994.1
12 10.06 штиль 0 7000 м 10/5 600 м
[Cu med, cong Ac As Ci sp]
+28.5 +24.0 77 +40 +40 очень
душно
1009.9 995.3 +31.8
15 10.06 штиль 0 6000 м 10/5 600 м
[Cu med, cong Ac As Ci sp]
+26.9 +24.1 85 +37 +37 очень
душно
1011.4 996.8
18 10.06 ЮЗ 4 6000 м 10/5 600 м
[Cu med, cong Ac As Ci sp]
+26.6 +24.2 87 +37 +37 очень
душно
1010.7 996.1
21 10.06 штиль 0 6000 м 10/5 600 м
[Cu med, cong Ac As Ci sp]
+25.6 +23.8 90 +35 +35 очень
душно
1009.4 994.8
00 11.06 штиль 0 8000 м 10/5 600 м
[Cu med, cong Ac As Ci sp]
+25.6 +23.8 90 +35 +35 очень
душно
1010.4 995.8 +25.2
03 11.06 Ю 3 10 км 6/4 600 м
[Cu med, cong Ac trans Ci sp]
+31.6 +23.8 63 +43 +48 опасность
перегрева
1011.5 997.0
06 11.06 В 5 10 км 6/4 600 м
[Cu med, cong Ac trans Ci sp]
+32.4 +24.7 64 +45 +51 опасность
перегрева
1010.6 996.0
09 11.06 В 3 10 км 6/4 600 м
[Cu med, cong Ac trans Ci sp]
+31.3 +25.0 69 +45 +49 опасность
перегрева
1008.5 993.9
12 11.06 штиль 0 8000 м 6/4 600 м
[Cu med, cong Ac trans Ci sp]
+29.6 +24.7 75 +42 +42 опасность
перегрева
1009.5 995.0 +33.0
15 11.06 ЮЗ 6 8000 м 6/4 600 м
[Cu med, cong Ac trans Ci sp]
+28.4 +24.9 81 +41 +41 опасность
перегрева
1011.3 996.7
18 11.06 ЮЗ 6 8000 м 6/4 600 м
[Cu med, cong Ac trans Ci sp]
+28.0 +24.5 81 +39 +39 очень
душно
1010.5 995.9
21 11.06 Ю 3 8000 м 6/4 600 м
[Cu med, cong Ac trans Ci sp]
+27.6 +25.0 86 +40 +40 очень
душно
1009.0 994.4
00 12.06 ЮЗ 3 10 км 6/4 600 м
[Cu med, cong Ac trans Ci sp]
+26.8 +23.5 82 +36 +37 очень
душно
1010.0 995.4 +25.4
03 12.06 ЮВ 4 10 км 6/4 600 м
[Cu med, cong Ac trans Ci fib]
+31.0 +26.2 76 +47 +51 опасность
перегрева
1012.1 997.5
06 12.06 ЮВ 3 10 км 8/4 600 м
[Cu med, cong Ac trans Ci sp]
+31.0 +25.9 74 +46 +53 опасность
перегрева
1010.9 996.3
09 12.06 ЮВ 3 8000 м 9/5 600 м
[Cu med, cong Ac trans Ci sp]
+30.6 +25.8 76 +46 +48 опасность
перегрева
1009.3 994.7
12 12.06 штиль 0 7000 м 9/5 600 м
[Cu med, cong Ac trans Ci sp]
+28.4 +24.9 81 +41 +41 опасность
перегрева
1009.6 995.0 +32.7
15 12.06 штиль 0 6000 м 9/5 600 м
[Cu med, cong Ac trans Ci sp]
+27.4 +25.0 87 +39 +39 очень
душно
1011.9 997.3
18 12.06 ЮЗ 5 5000 м 10/5 600 м
[Cu med, cong Ac trans Ci sp]
+28.5 +24.3 78 +40 +40 очень
душно
1011.3 996.7
21 12.06 ЮЗ 4 5000 м 9/5 600 м
[Cu med, cong Ac trans Ci sp]
+27.2 +24.0 83 +38 +38 очень
душно
1009.3 994.7
00 13.06 ЮЗ 3 7000 м 8/4 600 м
[Cu med, cong Ac trans Ci fib]
+26.9 +24.7 88 +38 +38 очень
душно
1010.2 995.6 +26.4
03 13.06 ЮЗ 3 8000 м 6/4 600 м
[Cu med, cong Ac trans Ci sp]
+32.4 +23.2 58 +43 +48 опасность
перегрева
1011.1 996.5
06 13.06 ЮЗ 7 10 км 5/3 600 м
[Cu med, cong Ac trans Ci fib]
+34.0 +22.4 51 +43 +46 опасность
перегрева
1010.0 995.4
09 13.06 ЮЗ 8 10 км 5/3 600 м
[Cu med, cong Ac trans Ci sp]
+33.8 +22.8 53 +44 +45 опасность
перегрева
1007.9 993.3
12 13.06 ЮЗ 5 8000 м 5/3 600 м
[Cu med, cong Ac trans Ci sp]
+30.2 +22.3 63 +39 +39 очень
душно
1009.3 994.7 +34.6
15 13.06 Ю 3 8000 м 5/3 600 м
[Cu med, cong Ac trans Ci sp]
+29.0 +25.5 81 +43 +43 опасность
перегрева
1011.8 997.3
18 13.06 штиль 0 8000 м 5/3 600 м
[Cu med, cong Ac trans Ci sp]
+27.4 +24.8 86 +39 +39 очень
душно
1011.3 996.7
21 13.06 штиль 0 8000 м 5/3 600 м
[Cu med, cong Ac trans Ci sp]
+26.4 +24.0 87 +37 +37 очень
душно
1009.4 994.8
00 14.06 штиль 0 8000 м 5/3 600 м
[Cu med, cong Ac trans Ci sp]
+26.4 +23.7 85 +36 +36 очень
душно
1009.7 995.1 +25.8
03 14.06 штиль 0 10 км 5/3 600 м
[Cu med, cong Ac trans Ci sp]
+31.2 +23.1 62 +41 +51 опасность
перегрева
1011.4 996.8
06 14.06 З 4 10 км 5/3 600 м
[Cu med, cong Ac trans Ci sp]
+33.2 +23.4 57 +44 +53 опасность
перегрева
1010.4 995.8
09 14.06 З 8 4000 м дождь 10/6 540 м
[Sc Ac As Ci sp]
+27.6 +24.4 83 +39 +39 очень
душно
1010.0 995.5 3
12 14.06 З 7 5000 м мгла {дождь} 9/5 600 м
[Sc Ac As Ci sp]
+25.6 +23.2 87 +34 +34 очень
душно
1010.7 996.1 +33.8 3
15 14.06 З 6 6000 м 9/5 600 м
[Sc Ac As Ci sp]
+26.8 +23.8 84 +37 +37 очень
душно
1012.7 998.1
18 14.06 З 7 6000 м 9/5 600 м
[Sc Ac As Ci sp]
+26.0 +23.6 87 +35 +35 очень
душно
1012.2 997.6
21 14.06 ЮЗ 6 6000 м 9/5 600 м
[Sc Ac As Ci sp]
+25.4 +23.6 90 +35 +35 очень
душно
1009.2 994.6
00 15.06 ЮЗ 5 6000 м {дождь} 9/5 600 м
[Sc Ac As Ci sp]
+27.4 +23.6 80 +37 +38 очень
душно
1009.9 995.3 +24.6 7
03 15.06 З 4 8000 м 9/5 600 м
[Sc Ac As Ci sp]
+29.8 +23.4 69 +40 +43 очень
душно
1012.6 998.0
06 15.06 З 6 10 км 9/5 600 м
[Sc Ac As Ci sp]
+33.0 +23.5 58 +44 +46 опасность
перегрева
1011.7 997.1
09 15.06 З 8 10 км 6/3 600 м
[Sc Ac trans Ci sp]
+32.0 +21.7 55 +41 +42 опасность
перегрева
1009.5 995.0
12 15.06 З 4 8000 м 8/4 600 м
[Sc Ac trans Ci sp]
+29.4 +23.0 68 +39 +39 очень
душно
1010.1 995.5 +33.4
15 15.06 З 3 8000 м 8/4 600 м
[Sc Ac trans Ci sp]
+29.0 +23.1 71 +39 +39 очень
душно
1010.9 996.3
18 15.06 штиль 0 8000 м 8/4 600 м
[Sc Ac trans Ci sp]
+25.0 +22.9 88 +33 +33 очень
душно
1010.9 996.3

 

Местоположение метеостанции Сабанг (Индонезия): широта 5.87 долгота 95.32 высота над уровнем моря 126 м.

В архиве по умолчанию представлена погода в Сабанге за последнюю неделю. Архивные данные за месяц целиком и за предыдущие месяцы, начиная с января 2011 года, Вы можете получить, выбрав интересующий диапазон дат из раскрывающегося списка и нажав кнопку "Ввод!".


*Определитесь, кто Вы:
робот инопланетянин человек

Внимание! Время в таблицах - всемирное. Для получения местного времени необходимо прибавить поправку, которая равна 7 ч.

Смотрите также архив погоды в соседних городах и на ближайших метеорологических станциях:

Погода в Банда-Ачехе (Индонезия) (40 км)
Погода в Меулабохе (Индонезия) (201 км)
Погода в Лхоксёмаве (Индонезия) (220 км)
Погода в Нанкаури (Андаманские и Никобарские острова, Индия) (307 км)
Погода на Пхукете (Таиланд) (407 км)
Погода в Пхукет аэропорту (Таиланд) (416 км)
Погода в Белаване (Индонезия) (440 км)
Погода в Такуа Па (Таиланд) (450 км)
Погода на Ко Ланта (Таиланд) (452 км)
Погода в Медан Полония (Индонезия) (452 км)

Пояснения к столбцам:

Ветер - указаны скорость ветра в м/с - средняя за 10 мин, порывы в срок и между сроками (в фигурных скобках) и направление, откуда дует ветер: С - северный, СВ - северо-восточный, В - восточный, ЮВ - юго-восточный, Ю - южный, ЮЗ - юго-западный, З - западный, СЗ - северо-западный.
Видимость - горизонтальная дальность видимости в метрах или километрах. При видимости от 1 до 10 км при отсутствии осадков обычно наблюдается дымка, при ухудшении видимости до 1 км и менее - туман. В сухую погоду видимость может ухудшаться дымом, пылью или мглою.
Явления - указаны атмосферные явления, наблюдавшиеся в срок или в последний час перед сроком; фигурными скобками обозначены явления, наблюдавшиеся между сроками (за 1-3 часа до срока); квадратными скобками обозначены град или гололедные отложения с указанием их диаметра в мм.
Облачность - указаны через наклонную черту общая и нижняя облачность в баллах и высота нижней границы облаков в метрах; квадратными скобками обозначены формы облаков: Ci - перистые, Cs - перисто-слоистые, Cc - перисто-кучевые, Ac - высококучевые, As - высокослоистые, Sc - слоисто-кучевые, Ns - слоисто-дождевые, Cu - кучевые, Cb - кучево-дождевые. Подробнее классификацию облаков см. в Атласе облаков (PDF).
T - Температура воздуха - температура, измеренная на высоте 2 м над землей.
Td - Температура точки росы - температура, при понижении до которой содержащийся в воздухе водяной пар достигнет насыщения.
f - Относительная влажность воздуха - влажноcть воздуха, измеренная на высоте 2 м над землей.
Te - Эффективная температура - температура, которую ощущает одетый по сезону человек в тени. Характеристика душности погоды. При расчете учитывается влияние влажности воздуха и скорости ветра на теплоощущения человека.
Tes - Эффективная температура на солнце - температура, которую ощущает человек, с поправкой на солнечный нагрев. Характеристика знойности погоды. Зависит от высоты солнца над горизонтом, облачности и скорости ветра. Ночью, в пасмурную погоду, а также при ветре 12 м/с и более поправка равна нулю.
P - Атмосферное давление - приведенное к уровню моря атмосферное давление.
Po - Атмосферное давление - измеренное на уровне метеостанции атмосферное давление.
Tmin - Минимальная температура - минимум температуры воздуха на высоте 2 м над землей.
Tmax - Максимальная температура - максимум температуры воздуха на высоте 2 м над землей.
R - Количество осадков - Количество выпавших осадков за период времени, мм. При наведении курсора мыши на число - период времени, за который выпало указанное количество осадков.
R24 - Количество осадков - Количество выпавших осадков за 24 часа, мм.
S - Снежный покров - Высота снежного покрова, см. При наведении курсора мыши на число - состояние снежного покрова и степень покрытия местности в баллах.